Showing default

PROPCUBE 1, 40976

Orbit data source: Space-Track

PROPCUBE 1, 40976 is a payload satellite owned by USN PGS (US) in LEO that was launched on Thu, 08 Oct 2015 UTC via an ATLAS V 401 launch vehicle from the Air Force Western Test Range (AFWTR). Payloads include a variety of satellites, spacecraft, and rockets equipped with specific instruments for various scientific and technological missions. These include communications satellites like Starlink; space stations such as the ISS; scientific satellites like the Hubble; Earth observation satellites from companies like Planet Labs, Umbra, and HawkEye 360; GPS; miniature CubeSats for education and research; and military/defense satellites.

Loading next visibility...
PROPCUBE 1 details
Identifier
40976, 2015-058N
Orbit
LEO
Last TLE update19 hours ago
Origin
Flag of USUSN PGS (US)
ManufacturerTyvak NSS
MissionOperational Commercial Technology
Bus & MotorCUBESAT 1U, Unknown motor
Mass1 kg wet, 1 kg dry
Launch date (UTC)
2015-10-08 (9 years ago)
Launch vehicle
ATLAS V 401
Launch site
Air Force Western Test Range (AFWTR)
Object type
Payload
Rocket body
Debris
Shape & HBRBox, 0.1 m
Radar Cross Section0.015 m², Small (<0.1 m²)

Expand to show TLE details & history

TLE from 19 hours ago
0 PROPCUBE 1
1 40976U 15058N   24360.68497972  .00010052  00000-0  90080-3 0  9990
2 40976  64.7740 159.0372 0183839 249.3602 108.7709 14.84149693 36180
Epoch: 2024-12-25T16:26Z
Definitive object data (Epoch: 2024-12-25T16:26:22.247Z)
Latitude-0.00006°
Longitude177.76929°
Altitude661.738 km
Speed7.504 km/s
True Right ascension10h 36m 08s
True Declination0° 00' 00"
Sunlit
Object was in daylight at TLE epoch
Visualization TLE readout
Latitude17.20179°
Longitude-12.94521°
Altitude611.14 km
Speed7.559 km/s
Apparent Right ascension22h 04m 20s
Apparent Declination-9° 53' 36"
Sunlit
Object is in daylight
Visualization observer readout
Local Sidereal Time10:19:25
Azimuth7.396° NNE
Elevation-59.79°
Doppler factor1
Orbital elements
Apogee altitude743.385 km
Perigee altitude486.269 km
Semi-major axis6,992.964 km
Eccentricity0.0183839
Inclination64.774°
RAAN159.0372°
Arg. of periapsis249.3602°
True anomaly110.75045°
Mean anomaly108.7709°
Eccentric anomaly109.76218°
Mean motion3.71152 °/min
BSTAR0.0009008
Orbital period97 mins
Loading maneuver chart data...
Loading historical data...
Loading historical data...
Loading historical data...
Loading historical data...
Loading historical data...
Loading historical data...
Loading historical data...

PROPCUBE 1 Visibility forecast

Observer location: undefined°, undefined

Span
Click to sort rows by Start time (UTC) header in descending order
Start Az.
Max El. time (UTC)
Max El. Az.
Max El.
End time (UTC)
End Az.
9 mins2024-12-26 11:58:09.321Z183.79° SSW2024-12-26 12:02:09.321Z120.426° SE34.835°2024-12-26 12:07:09.321Z44.483° NE
7 mins2024-12-26 13:39:09.321Z263.362° W2024-12-26 13:42:09.321Z308.754° NW24.81°2024-12-26 13:46:09.321Z7.246° NNE
7 mins2024-12-26 20:28:09.321Z352.814° N2024-12-26 20:31:09.321Z39.286° NE26.979°2024-12-26 20:35:09.321Z107.432° ESE
7 mins2024-12-26 22:08:09.321Z302.647° NW2024-12-26 22:11:09.321Z252.852° W28.059°2024-12-26 22:15:09.321Z185.805° SSW
|